RH
77 82 90 88 74 83 83 84 84 82 79 80 80 82 77 84 90 92 94 70 74 76 83 75 81 79 86 96 90 77 92 87 80 67 51 40 38 32 36 59 50 62 79 76 97
75 86 82 82 88 89 90 88 88 85 78 74 72 70 81 86 91 88 67 68 66 80 76 83 91 81 92 93 85 92 88 77 63 54 49 44 38 37 42 52 64 79 86 96 100
80 87 84 74 82 77 75 75 77 77 72 69 72 76 76 81 79 72 75 73 75 76 80 80 82 85 94 84 85 86 80 65 60 51 43 42 40 45 42 54 60 72 93 93 97
83 85 78 80 83 77 74 72 71 69 70 70 73 74 73 78 90 42 81 76 73 57 85 80 88 94 89 88 75 98 70 60 58 53 52 52 50 53 44 39 40 61 84 84 90
86 82 83 84 79 78 73 70 70 71 72 73 69 67 79 77 71 51 60 62 61 56 79 79 83 81 84 68 73 93 76 62 61 55 60 55 59 52 48 45 80 85 83 87 90
74 77 84 82 78 74 71 74 74 74 76 78 73 72 75 91 59 53 58 61 62 64 64 79 83 70 84 72 75 73 76 72 64 60 69 64 58 45 44 84 96 91 85 79 84
82 74 80 85 80 75 76 76 76 79 81 81 74 82 79 71 59 54 52 50 57 58 56 68 75 84 77 84 65 67 92 82 84 70 70 80 69 66 49 88 94 86 82 77 75
75 84 82 80 81 81 80 80 80 77 77 78 78 79 91 62 54 60 57 63 57 61 62 60 75 80 94 78 78 87 82 90 70 80 87 84 81 58 69 88 98 85 82 87 85
83 85 80 81 86 86 86 82 73 73 70 70 77 80 88 58 68 52 56 71 62 60 57 56 69 93 84 97 95 90 84 89 77 81 72 78 80 56 62 80 91 95 92 86 88
76 81 87 89 88 88 87 61 51 58 55 68 75 83 64 67 58 59 54 66 68 69 61 63 79 96 92 94 95 83 90 89 85 79 76 82 77 57 56 75 83 90 91 88 83
88 88 88 89 90 89 78 64 66 64 71 77 64 79 62 55 54 58 55 57 61 80 89 74 88 91 80 79 68 63 79 82 74 70 77 77 73 61 59 66 79 84 86 84 79
83 88 91 92 92 78 70 69 83 91 90 69 70 73 69 66 80 59 50 67 68 77 84 82 88 64 57 68 77 73 77 83 70 65 77 81 74 60 60 58 58 78 83 80 75
87 93 93 93 84 66 84 76 79 87 97 78 63 66 62 74 83 73 53 60 81 93 87 90 66 55 61 66 86 85 82 76 72 68 66 82 82 74 63 56 56 55 67 74 74
90 92 91 89 66 82 75 76 82 91 92 61 42 56 55 62 77 57 48 59 75 81 74 93 84 71 64 72 77 87 65 72 82 78 96 66 86 83 66 72 63 56 66 74 73
89 92 94 81 83 87 75 82 83 75 70 32 43 46 37 56 57 66 54 71 87 85 88 82 87 76 100 73 63 75 62 86 92 84 78 66 77 66 57 67 66 59 57 68 68
92 92 69 71 79 75 83 80 63 79 67 63 53 50 56 52 71 76 70 76 87 93 99 88 75 67 95 75 71 54 84 84 92 100 98 86 76 74 60 55 51 53 57 53 64
91 70 66 74 82 71 78 64 79 77 50 56 62 58 68 74 72 96 100 99 88 99 96 82 87 73 72 97 90 78 99 98 98 97 97 70 75 55 47 47 48 51 58 51 51
65 62 67 75 63 71 59 79 71 60 66 58 66 74 80 72 77 88 98 98 96 100 98 96 98 85 74 83 95 94 90 96 96 96 95 69 93 65 44 40 38 44 48 53 48
60 65 72 57 63 77 82 85 80 68 68 82 79 85 82 66 81 98 96 88 82 98 97 97 87 75 64 68 92 100 99 93 88 79 91 94 67 45 39 37 43 44 37 45 56
71 76 71 59 68 59 89 84 80 60 66 83 92 88 91 85 90 92 97 100 92 89 90 97 97 81 84 75 82 92 94 98 98 96 94 83 64 56 35 35 32 33 41 40 40
70 81 54 54 52 88 94 95 82 68 67 88 95 96 94 97 86 95 94 82 99 97 88 99 99 97 79 84 98 99 100 99 94 90 80 76 61 46 32 28 28 28 29 31 40
74 79 51 50 86 100 92 74 68 78 65 79 77 86 97 87 97 94 97 98 97 98 100 98 99 97 79 77 69 82 92 98 93 97 88 70 53 34 33 36 36 35 34 36 39
96 91 50 50 93 97 86 82 77 81 78 83 88 96 81 92 97 81 88 70 73 100 100 99 97 96 97 80 75 79 80 77 81 82 79 72 51 33 37 38 40 42 49 59 54
94 92 93 93 89 96 88 86 88 68 80 77 90 82 85 91 78 92 87 75 68 95 95 92 98 97 90 74 90 82 87 64 68 85 72 62 43 37 34 37 37 43 60 65 68
96 93 91 98 94 100 86 94 92 85 73 76 84 76 92 97 92 96 84 75 70 89 98 100 97 97 87 71 74 82 86 80 77 65 66 52 42 39 31 33 34 43 60 66 65
91 95 92 93 92 95 88 91 88 75 88 89 97 76 74 93 98 97 91 85 93 86 98 98 97 73 84 66 65 85 83 86 78 58 49 54 49 36 31 32 36 46 59 66 65
97 93 83 89 99 96 94 94 95 93 75 79 81 85 84 83 79 79 84 79 81 96 98 98 97 89 94 70 63 85 86 83 73 58 58 61 46 35 31 29 30 36 50 62 66
Wind_Speed
18 19 19 17 20 19 18 19 19 19 19 20 21 21 21 23 25 25 16 20 13 9 9 17 8 11 8 5 5 3 3 10 7 6 4 3 5 2 3 8 2 8 7 6 24
18 19 18 19 19 19 19 20 20 19 20 22 22 21 21 22 25 22 32 26 23 20 19 13 7 8 5 7 8 6 8 11 5 5 3 2 1 5 5 4 2 2 4 25 27
20 20 19 23 22 22 22 23 23 24 24 23 22 20 21 21 13 7 17 10 13 16 28 18 11 5 7 8 8 7 15 6 2 3 2 1 3 4 4 3 7 12 15 19 22
21 20 21 21 19 22 23 24 23 23 24 24 22 21 20 16 8 5 4 22 18 17 15 17 9 7 9 14 12 6 15 10 14 3 1 3 1 4 5 5 5 7 23 22 22
20 22 21 20 22 23 24 24 25 25 25 23 22 21 18 10 15 34 32 28 18 17 9 16 16 13 14 15 12 16 7 16 5 12 2 1 2 2 5 4 6 18 20 22 18
22 22 21 21 22 24 25 26 28 28 28 25 22 21 17 23 8 22 21 23 15 9 8 11 7 13 5 15 18 7 15 5 14 13 4 4 2 1 1 5 9 18 20 20 19
20 23 22 22 24 25 26 28 30 32 30 26 23 21 14 17 20 26 29 35 28 19 9 9 15 8 10 6 15 21 5 13 8 12 6 6 7 8 3 7 12 15 17 18 19
22 21 22 24 26 26 28 29 34 32 29 23 18 16 11 16 17 24 28 25 25 17 16 14 16 10 4 5 4 8 13 8 11 11 5 11 20 4 7 11 10 13 13 12 13
23 22 23 25 26 28 28 32 30 27 20 12 4 5 6 3 6 17 16 11 18 16 15 9 7 5 5 6 6 7 9 16 5 16 7 16 8 20 8 8 11 10 9 11 9
23 23 24 25 26 28 30 27 21 19 7 4 2 1 4 4 4 4 6 9 3 2 2 6 5 5 5 8 13 14 17 11 14 9 10 20 9 4 12 9 12 11 8 10 11
24 25 24 25 26 26 21 10 6 5 6 5 7 5 12 11 14 13 8 3 3 3 4 5 6 15 20 21 16 10 4 3 8 7 12 16 13 4 7 9 8 11 12 11 12
25 25 24 24 23 15 15 5 6 9 11 8 13 9 16 8 5 7 13 8 6 5 5 7 20 23 10 8 12 18 16 11 2 8 9 12 15 11 7 7 10 12 12 13 10
25 25 23 22 20 9 9 3 16 11 4 7 5 4 5 7 6 6 8 4 4 6 8 16 10 20 12 13 13 17 21 13 8 8 0 6 4 9 9 5 7 9 13 13 17
24 22 21 21 4 13 7 15 21 4 3 6 5 4 2 4 5 5 13 7 5 15 10 11 14 12 19 19 14 19 19 15 11 15 11 7 6 9 14 8 8 12 11 15 15
23 21 19 13 9 6 13 25 14 2 5 8 6 2 11 4 7 1 4 2 8 9 5 6 5 19 8 20 18 13 13 12 8 15 6 3 2 4 8 13 16 15 12 13 16
23 21 15 7 8 10 24 18 1 6 4 7 5 15 11 8 2 4 1 6 1 3 3 3 4 4 7 7 15 10 7 16 11 3 9 11 12 4 7 23 13 11 13 16 15
22 19 8 6 7 20 17 3 5 5 5 8 10 13 17 5 7 3 1 3 2 2 5 5 5 3 7 7 8 11 8 5 5 5 1 6 5 8 5 6 10 17 15 15 16
21 13 6 5 17 17 7 5 7 4 6 6 8 17 4 6 5 6 2 3 8 8 2 6 4 12 8 6 1 14 12 5 2 4 4 0 7 5 5 6 7 6 9 13 17
17 9 1 11 18 10 5 5 5 3 5 9 15 4 4 3 6 5 3 3 5 9 4 4 6 5 16 5 9 5 7 2 6 2 4 3 6 8 4 3 6 7 6 8 10
14 6 3 19 11 5 5 2 3 3 5 2 4 4 8 8 8 10 4 3 3 7 6 2 4 7 3 8 4 4 8 3 1 6 4 2 3 4 3 4 3 4 7 5 5
5 3 6 20 5 5 3 4 5 6 6 2 3 5 6 6 8 5 6 4 9 2 5 2 2 4 10 5 5 6 3 2 4 2 4 4 4 4 2 3 4 5 5 6 8
3 3 12 15 4 1 1 2 4 5 2 3 4 4 4 9 5 4 6 7 9 7 3 2 0 0 9 1 2 4 5 3 2 1 2 1 2 3 4 2 3 5 5 4 6
2 2 6 6 3 3 5 4 3 4 5 4 4 4 5 5 5 3 6 8 13 9 4 1 1 1 4 3 1 5 5 4 6 3 1 3 3 0 3 4 4 4 5 4 3
3 4 4 4 1 2 5 4 6 5 4 4 4 5 10 4 3 6 8 6 15 9 17 2 1 2 4 4 5 5 3 5 5 4 4 1 6 4 4 6 6 5 4 3 6
2 2 1 4 3 3 3 3 5 6 3 5 3 9 12 5 5 3 5 11 9 9 9 3 3 4 3 5 4 4 6 6 4 5 5 4 6 3 3 5 3 3 4 6 5
2 3 1 3 3 3 4 3 4 4 3 5 3 12 13 7 4 11 9 5 5 9 7 7 2 1 6 4 5 5 6 7 3 3 3 5 3 3 2 4 5 5 5 5 6
1 2 1 3 2 2 2 4 4 2 5 7 8 10 10 7 11 18 14 13 14 10 5 5 3 4 3 3 5 4 5 5 4 2 7 3 3 5 1 3 5 6 3 5 6
Wind_Direction
342 338 342 341 337 335 329 329 325 325 323 320 320 320 315 314 311 304 269 246 244 279 294 269 286 210 218 209 190 118 212 223 221 159 241 148 165 94 94 131 208 177 153 167 152
342 337 339 338 338 337 336 331 325 322 322 318 315 315 312 317 312 285 270 259 251 258 271 249 252 183 229 196 189 194 222 217 206 193 227 114 97 163 136 129 129 101 79 141 147
340 340 346 337 333 333 331 328 323 318 313 308 307 310 313 321 312 256 75 59 251 268 249 245 239 212 226 208 201 201 226 186 232 185 198 79 73 320 138 227 211 183 155 157 159
336 337 338 332 332 330 328 323 319 314 311 309 309 306 304 314 269 237 318 345 343 338 204 206 194 198 221 221 207 230 219 200 231 274 147 99 10 357 194 220 308 177 159 159 166
340 337 334 333 330 327 324 321 318 314 309 305 302 299 299 258 249 277 298 314 333 347 234 206 210 203 215 217 225 224 224 220 211 245 324 352 15 270 264 308 120 137 162 169 165
333 331 330 330 329 327 322 319 316 312 306 303 296 290 281 268 260 276 288 300 322 350 333 228 227 215 249 241 208 208 223 224 208 227 207 16 335 342 326 107 135 153 169 176 172
336 333 332 328 328 325 323 319 316 311 306 304 293 280 268 259 271 275 281 285 291 294 280 284 287 231 191 223 231 225 204 215 212 211 239 51 294 209 189 130 157 173 171 176 180
328 326 331 328 326 326 323 320 316 309 315 308 288 271 268 254 263 265 276 281 283 288 265 254 255 268 253 331 298 211 223 232 217 168 212 153 236 219 172 144 165 178 178 175 181
333 334 330 327 326 325 323 322 316 313 317 320 287 212 258 311 226 272 274 252 285 261 264 292 200 241 162 220 235 210 217 219 218 181 149 176 225 230 175 173 169 173 175 181 156
330 328 327 328 329 329 326 331 333 321 6 5 74 64 285 252 249 240 284 240 247 350 254 209 199 220 173 197 213 207 203 218 199 187 176 193 228 330 174 175 179 177 170 183 178
333 333 331 329 331 333 339 347 1 336 39 253 251 254 281 292 278 256 275 172 192 122 217 200 203 222 198 205 225 236 241 234 213 172 181 205 213 230 175 181 173 182 185 181 191
333 329 328 328 330 341 357 20 24 309 303 271 257 244 267 268 285 273 222 187 178 206 234 224 219 224 219 202 228 230 224 230 198 169 187 201 217 199 177 209 191 183 193 189 168
337 339 337 334 332 353 350 334 341 335 296 299 255 251 254 154 249 266 169 196 182 179 226 227 231 223 221 212 207 231 228 212 216 177 336 123 218 192 216 195 203 199 196 184 182
342 336 337 336 351 341 331 338 330 318 21 284 327 290 219 236 274 218 194 169 185 213 198 252 231 227 208 218 201 224 219 223 221 182 199 188 238 207 203 201 196 206 181 187 187
336 339 335 340 313 328 324 324 329 76 20 312 294 239 312 217 287 202 239 116 181 205 177 205 207 214 215 222 205 245 219 191 215 232 167 189 218 231 186 211 217 207 194 189 188
335 337 339 339 335 328 325 323 12 41 284 324 311 330 335 299 246 309 183 49 336 213 198 253 327 264 199 240 243 211 233 213 206 162 210 181 190 220 190 214 219 207 195 184 189
332 334 340 0 333 333 332 17 32 91 350 315 322 330 322 287 308 321 239 135 160 171 213 184 243 267 160 190 288 220 183 165 188 186 225 159 166 222 205 205 199 201 197 190 183
335 336 332 332 334 335 354 47 56 262 273 298 307 314 297 344 309 319 242 220 221 230 259 178 272 182 174 176 233 207 214 185 188 143 118 65 211 228 204 186 206 208 209 191 185
337 336 8 344 338 341 68 50 205 278 324 320 317 324 305 314 324 320 289 250 201 195 204 204 240 172 170 140 148 147 217 357 105 335 99 174 289 295 239 212 202 200 163 185 177
337 340 331 343 346 39 72 296 252 228 319 325 311 8 315 331 331 335 296 304 319 182 205 190 266 196 131 115 135 170 147 174 224 148 114 245 273 231 161 162 153 178 214 221 209
7 31 355 348 9 47 107 233 286 274 321 285 278 289 268 310 304 303 310 299 357 214 189 196 266 132 142 187 154 133 213 129 128 52 135 139 261 250 338 316 281 284 274 255 229
44 21 349 353 41 26 43 241 292 290 326 299 284 254 286 312 296 308 322 297 334 333 224 234 16 234 156 300 192 134 144 101 89 127 44 112 286 321 325 287 257 283 285 289 221
71 259 348 6 69 331 309 303 271 307 319 328 298 337 337 296 316 298 311 303 350 343 320 200 308 82 82 91 349 129 136 132 126 142 248 107 216 182 39 67 55 42 358 332 145
68 15 334 40 96 116 337 308 321 293 285 324 279 308 329 296 264 298 311 318 340 344 359 203 13 33 194 188 126 120 118 139 115 108 167 151 141 41 31 52 30 30 31 29 126
36 234 147 321 329 349 337 290 325 341 325 315 305 360 328 293 306 307 332 327 309 345 355 28 58 4 349 106 93 139 149 145 110 156 127 192 143 168 105 88 52 42 53 87 97
88 62 352 282 314 26 338 291 308 317 272 297 332 326 316 299 329 314 323 321 281 329 334 342 18 337 22 20 80 94 117 120 116 140 71 119 195 192 138 138 77 66 81 115 133
69 97 17 313 12 30 242 267 273 334 282 245 299 313 304 287 307 287 271 263 267 291 324 351 356 29 336 16 87 33 208 152 146 161 146 162 213 168 91 65 73 105 118 156 166